Location: Saginaw
(43.4190°N, 83.9510°W)
Time: 03:31:28
(UTC-04:00)

OTV 5 (USA 277) - Visible Passes

Search period start: 27 May 2018 00:00
Search period end: 06 June 2018 00:00
Orbit: 308 x 326 km, 54.5° (Epoch: 06 May)

Date Brightness Start Highest point End Pass type
(mag) Time Alt. Az. Time Alt. Az. Time Alt. Az.
29 May ? 04:55:05 10° S 04:56:58 17° SE 04:58:52 10° E visible
30 May ? 05:08:42 11° SSW 05:11:12 45° SE 05:13:53 10° ENE visible
31 May ? 03:51:42 10° SE 03:51:42 10° SE 03:52:12 10° ESE visible
01 Jun ? 04:05:31 26° SSE 04:05:49 26° SE 04:08:12 10° ENE visible
02 Jun ? 04:19:15 39° SW 04:20:07 78° SE 04:22:53 10° NE visible
03 Jun ? 03:02:05 11° E 03:02:05 11° E 03:02:19 10° E visible
03 Jun ? 04:32:56 19° W 04:34:34 39° NNW 04:37:12 10° NE visible
04 Jun ? 03:15:43 28° E 03:15:43 28° E 03:17:20 10° ENE visible
04 Jun ? 04:46:59 10° WNW 04:49:09 20° NNW 04:51:19 10° NNE visible
05 Jun ? 03:29:18 59° N 03:29:18 59° N 03:31:48 10° NE visible
05 Jun ? 05:02:25 10° NW 05:03:51 13° NNW 05:05:17 10° NNE visible
